Regional Weather Roundup
Issued by NWS

Home | Current Version | Previous Version | Text Only | Print | Product List | Glossary Off
Versions: 1 2 3 4 5 6 7 8 9 10 11 12 13 14 15 16 17 18 19 20 21 22 23 24 25 26 27 28 29 30 31 32 33 34 35 36 37 38 39 40 41 42 43 44 45 46 47 48 49 50

000
ASUS43 KIND 040659
RWRIN

WEATHER ROUNDUP FOR INDIANA
NATIONAL WEATHER SERVICE INDIANAPOLIS IN
300 AM EDT MON MAY 04 2015

NOTE: "FAIR" INDICATES FEW OR NO CLOUDS BELOW 12,000 FEET WITH NO
SIGNIFICANT WEATHER AND/OR OBSTRUCTIONS TO VISIBILITY.

* - STATION DOES NOT REPORT WEATHER SUCH AS PRECIPITATION OR FOG.

+ - STATION NOT QUALITY CONTROLLED BY THE NATIONAL WEATHER SERVICE.
    USE DATA WITH CAUTION...ESPECIALLY DEWPOINT AND RELATIVE
    HUMIDITY OBSERVATIONS.

INZ001>003-010>013-019-020-040800-
NORTHWEST INDIANA

CITY           SKY/WX    TMP DP  RH WIND       PRES   REMARKS

$$

LMZ046-743>745-040800-
SOUTHERN LAKE MICHIGAN

STATION/POSITION TIME  TEMP    WIND        PRES    WAVE
                       AIR SEA DIR/SP/G            HT
                 (UTC) (F)     (DEG/KT/KT) (MB)    (FT)
BURNS HARBOR     0600   66     180/ 13/ 16 1014.2F
MICHIGAN CITY    0600   68     150/ 15/ 20   N/A
5NW MICH CITY    0600   61 50  190/ 10/ 14   N/A     1

$$

INZ004-005-014>016-021>024-040800-
NORTH CENTRAL INDIANA

CITY           SKY/WX    TMP DP  RH WIND       PRES   REMARKS
GOSHEN         MOCLDY    67  46  47 S12G22    29.99F
SOUTH BEND     CLOUDY    68  45  43 S15       29.97F

$$

INZ006>009-017-018-025>027-040800-
NORTHEAST INDIANA

CITY           SKY/WX    TMP DP  RH WIND       PRES   REMARKS
ANGOLA *+      PTCLDY    64  54  68 S6        30.02S
FORT WAYNE     CLOUDY    63  49  60 S12       30.04F

$$

INZ028-029-035-036-043>045-051>053-040800-
WEST CENTRAL INDIANA

CITY           SKY/WX    TMP DP  RH WIND       PRES   REMARKS
GREENCASTLE +  CLEAR     61  43  51 S3        30.06S
LAFAYETTE      PTCLDY    62  48  60 SW5       30.02R
TERRE HAUTE    CLEAR     63  48  58 S8        30.05R

$$

INZ030>032-037>040-046>048-054>057-064-065-040800-
CENTRAL INDIANA

CITY           SKY/WX    TMP DP  RH WIND       PRES   REMARKS
INDIANAPOLIS   PTCLDY    60  47  61 S6        30.04S
-EAGLE CREEK   CLEAR     59  47  64 CALM      30.05S
MT COMFORT *+  CLEAR     59  41  51 S5        30.07S
SHELBYVILLE    CLEAR     60  49  66 S9        30.07S

$$

INZ033-034-041-042-049-050-058-059-040800-
EAST CENTRAL INDIANA

CITY           SKY/WX    TMP DP  RH WIND       PRES   REMARKS
MUNCIE         MOCLDY    64  48  56 S9        30.06S

$$

INZ060-061-067>069-081>083-085>088-040800-
SOUTHWEST INDIANA

CITY           SKY/WX    TMP DP  RH WIND       PRES   REMARKS
EVANSVILLE     CLEAR     63  49  60 CALM      30.08R
HUNTINGBURG *+ CLEAR     63  48  59 S6        30.09S

$$

INZ062-063-066-070>080-084-089>092-040800-
SOUTH CENTRAL AND SOUTHEAST INDIANA

CITY           SKY/WX    TMP DP  RH WIND       PRES   REMARKS
BLOOMINGTON    CLEAR     61  48  62 S8        30.07S
MADISON *+     CLEAR     55  48  76 CALM      30.12S
SEYMOUR +      CLEAR     55  48  76 S5        30.08S

$$




USA.gov is the U.S. government's official web portal to all federal, state and local government web resources and services.